Home   Weather   Stavanger   Past weeks
Flag for Norway

Past Weather in Stavanger, Norway — Yesterday and Last 2 Weeks

Now
43 °F

Sunny.


Feels Like: 40 °F
Forecast: 45 / 43 °F
Wind: 5 mph from Southwest

Location: Stavanger / Sola

Current Time: Mar 19, 2019 at 11:37:04 am

Latest Report: Mar 19, 2019 at 10:50 am


Visibility: 10 mi

Pressure: 30.18 "Hg

Humidity: 66%

Dew Point: 32 °F

Location of StavangerLocation

Past Weather in Stavanger — Graph

°F

Stavanger Temperature Yesterday

Maximum temperature yesterday: 46 °F (at 12:50 pm)
Minimum temperature yesterday: 37 °F (at 10:20 pm)
Average temperature yesterday: 41 °F

High & Low Weather Summary for the Past Weeks

 TemperatureHumidityPressure
High48 °F (Mar 7, 11:50 am)100% (Mar 5, 1:50 am)30.18 "Hg (Mar 5, 1:50 am)
Low28 °F (Mar 11, 6:20 am)39% (Mar 10, 2:50 pm)28.38 "Hg (Mar 17, 6:20 am)
Average40 °F80%29.26 "Hg
* Reported Mar 4 10:20 am — Mar 19 10:20 am, Stavanger. Weather by CustomWeather, © 2019

Note: Actual official high and low records may vary slightly from our data, if they occured in-between our weather recording intervals... More about our weather records

Advertising

Stavanger Weather History for the Previous 24 Hours

Scroll right to see more
 ConditionsComfort  
Time TempWeatherWind HumidityBarometerVisibility
10:20 am
Tue, Mar 19
39 °FSunny.5 mph75%30.18 "Hg10 mi
9:50 am39 °FSunny.5 mph75%30.18 "Hg10 mi
9:20 am37 °FSunny.5 mph75%30.18 "Hg10 mi
8:50 am36 °FSunny.3 mph81%30.18 "Hg10 mi
8:20 am32 °FSunny.3 mph87%30.15 "Hg10 mi
7:50 am32 °FSunny.3 mph87%30.15 "Hg10 mi
7:20 am28 °FSunny.5 mph93%30.15 "Hg10 mi
6:50 am30 °FSunny.2 mph86%30.15 "Hg10 mi
6:20 am30 °FClear.5 mph93%30.12 "Hg10 mi
5:50 am30 °FClear.3 mph93%30.12 "Hg10 mi
4:50 am30 °FClear.2 mph93%30.12 "Hg10 mi
3:50 am32 °FClear.2 mph87%30.12 "Hg10 mi
2:50 am34 °FClear.3 mph81%30.09 "Hg10 mi
1:50 am34 °FPassing clouds.5 mph81%30.09 "HgN/A
12:50 am36 °FPassing clouds.3 mph81%30.07 "HgN/A
11:50 pm
Mon, Mar 18
37 °FClear.13 mph75%30.07 "Hg10 mi
11:20 pm39 °FClear.13 mph70%30.04 "Hg10 mi
10:50 pm39 °FClear.12 mph70%30.04 "Hg10 mi
10:20 pm37 °FClear.6 mph75%30.01 "Hg10 mi
9:50 pm39 °FClear.13 mph70%30.01 "Hg10 mi
9:20 pm39 °FClear.13 mph75%30.01 "Hg10 mi
8:50 pm39 °FClear.15 mph70%29.98 "Hg10 mi
8:20 pm39 °FClear.14 mph70%29.95 "Hg10 mi
7:50 pm41 °FClear.15 mph70%29.95 "Hg10 mi
7:20 pm41 °FClear.17 mph70%29.92 "Hg10 mi
6:50 pm41 °FClear.23 mph70%29.89 "Hg10 mi
6:20 pm43 °FSunny.25 mph61%29.89 "Hg10 mi
5:50 pm43 °FSunny.22 mph61%29.86 "Hg10 mi
5:20 pm43 °FSunny.24 mph61%29.83 "Hg10 mi
4:50 pm45 °FPassing clouds.28 mph57%29.83 "HgN/A
4:20 pm45 °FPassing clouds.26 mph57%29.80 "HgN/A
3:50 pm45 °FPassing clouds.28 mph53%29.80 "HgN/A
3:20 pm45 °FPassing clouds.25 mph57%29.77 "HgN/A
2:50 pm46 °FPassing clouds.26 mph53%29.77 "HgN/A
2:20 pm46 °FPassing clouds.22 mph53%29.74 "HgN/A
1:50 pm46 °FPassing clouds.20 mph53%29.74 "HgN/A
12:50 pm46 °FPassing clouds.21 mph53%29.71 "HgN/A
12:20 pm45 °FPassing clouds.21 mph57%29.68 "HgN/A
11:50 am45 °FPassing clouds.21 mph57%29.68 "HgN/A
11:20 am45 °FPassing clouds.21 mph61%29.65 "HgN/A
Weather by CustomWeather, © 2019

See weather overview